Wenatchee, WA

4:55 PM PDT on March 27, 2017 (GMT -0700)
Pangborn Memorial

Weather History for KEAT - March, 2015

Change the Weather History Date:

Tuesday, March 3, 2015

  Actual Average Record
Temperature  
Mean Temperature 27 °F 40 °F  
Max Temperature 39 °F 48 °F 61 °F (1994)
Min Temperature 15 °F 31 °F 10 °F (1989)
Degree Days  
Heating Degree Days 38 25  
Month to date heating degree days 103 77  
Since 1 July heating degree days 4537 4541  
Cooling Degree Days 0 0  
Month to date cooling degree days 0 0  
Year to date cooling degree days 0 0  
Moisture  
Dew Point 14 °F    
Average Humidity 38    
Maximum Humidity 54    
Minimum Humidity 23    
Precipitation  
Precipitation 0.00 in 0.03 in 0.23 in (2009)
Month to date precipitation 0.03 0.08  
Year to date precipitation 3.20 1.95  
Snow  
Snow 0.00 in - - ()
Month to date snowfall 0.4  
Snow Depth T in    
Sea Level Pressure  
Sea Level Pressure 30.22 in    
Wind  
Wind Speed 3 mph (SE)    
Max Wind Speed 10 mph    
Max Gust Speed -    
Visibility 10 miles    
Events      
T = Trace of Precipitation, MM = Missing Value Source: NWS Daily Summary

Daily Weather History Graph

Daily Weather History Graph

Search for Another Location

Airport or City:

Trip Planner

Search our weather history database for the weather conditions in past years. The results will help you decide how hot, cold, wet, or windy it might be!

Date:

Astronomy

Mar. 03, 2015 Rise Set
Actual Time 6:37 AM PST 5:48 PM PST
Civil Twilight 6:06 AM PST 6:19 PM PST
Nautical Twilight 5:31 AM PST 6:54 PM PST
Astronomical Twilight 4:55 AM PST 7:30 PM PST
Moon 4:12 PM PST (3/3) 5:26 AM PST (3/3)
Length of Visible Light 12h 12m
Length of Day
11h 11m
Waxing Gibbous, 97% of the Moon is Illuminated
Mar 3
Waxing Gibbous
Mar 5
Full
Mar 13
Last Quarter
Mar 20
New
Mar 27
First Quarter

Hourly Weather History & Observations

Time (PST) Temp. Windchill Dew Point Humidity Pressure Visibility Wind Dir Wind Speed Gust Speed Precip Events Conditions
12:55 AM 39.0 °F 36.8 °F 10.9 °F 32% 30.18 in 10.0 mi NW 3.5 mph - N/A   Clear
1:55 AM 37.0 °F - 12.0 °F 36% 30.20 in 10.0 mi Calm Calm - N/A   Clear
2:55 AM 36.0 °F - 12.0 °F 37% 30.21 in 10.0 mi Calm Calm - N/A   Clear
3:55 AM 37.0 °F 34.5 °F 12.0 °F 36% 30.23 in 10.0 mi WNW 3.5 mph - N/A   Clear
4:55 AM 32.0 °F - 15.1 °F 50% 30.25 in 10.0 mi Calm Calm - N/A   Clear
5:55 AM 33.1 °F - 15.1 °F 48% 30.26 in 10.0 mi Calm Calm - N/A   Clear
6:55 AM 30.0 °F - 12.9 °F 49% 30.25 in 10.0 mi Calm Calm - N/A   Clear
7:55 AM 32.0 °F 27.5 °F 16.0 °F 52% 30.25 in 10.0 mi South 4.6 mph - N/A   Clear
8:55 AM 35.1 °F - 18.0 °F 50% 30.27 in 10.0 mi Calm Calm - N/A   Clear
9:55 AM 37.9 °F - 15.1 °F 39% 30.27 in 10.0 mi Calm Calm - N/A   Clear
10:55 AM 41.0 °F 39.0 °F 16.0 °F 36% 30.25 in 10.0 mi South 3.5 mph - N/A   Clear
11:55 AM 43.0 °F 39.5 °F 10.9 °F 27% 30.23 in 10.0 mi Variable 5.8 mph - N/A   Clear
12:55 PM 44.1 °F 40.8 °F 8.1 °F 23% 30.21 in 10.0 mi ESE 5.8 mph - N/A   Clear
1:55 PM 45.0 °F 41.2 °F 10.0 °F 24% 30.20 in 10.0 mi SSE 6.9 mph - N/A   Clear
2:55 PM 46.9 °F - 12.9 °F 25% 30.18 in 10.0 mi SSE 5.8 mph - N/A   Clear
3:55 PM 46.9 °F - 12.9 °F 25% 30.17 in 10.0 mi SSE 4.6 mph - N/A   Clear
4:55 PM 46.0 °F 41.0 °F 12.9 °F 26% 30.17 in 10.0 mi ESE 10.4 mph - N/A   Clear
5:55 PM 44.1 °F 40.1 °F 12.0 °F 27% 30.17 in 10.0 mi ESE 6.9 mph - N/A   Clear
6:55 PM 37.9 °F 32.1 °F 15.1 °F 39% 30.19 in 10.0 mi East 8.1 mph - N/A   Clear
7:55 PM 39.9 °F 37.8 °F 12.0 °F 32% 30.20 in 10.0 mi SE 3.5 mph - N/A   Clear
8:55 PM 36.0 °F 32.1 °F 14.0 °F 41% 30.21 in 10.0 mi NW 4.6 mph - N/A   Clear
9:55 PM 36.0 °F - 16.0 °F 44% 30.22 in 10.0 mi Calm Calm - N/A   Clear
10:55 PM 35.1 °F 32.2 °F 17.1 °F 48% 30.24 in 10.0 mi NW 3.5 mph - N/A   Clear
11:55 PM 32.0 °F 28.7 °F 17.1 °F 54% 30.25 in 10.0 mi North 3.5 mph - N/A   Clear